Theta_e
312 312 311 311 310 308 312 317 312 326 327 309 309 307 309 306 310 312 309 309 306 305 305 303 302 300 303 307 306 301 305 302 296 299 304 306 304 301 300 294 294 297 295 294
312 311 311 311 310 309 310 311 313 325 324 305 304 308 309 311 311 310 308 305 307 307 304 301 303 304 307 306 304 302 306 300 293 294 299 304 300 302 302 302 303 295 291 294
311 311 310 310 310 309 312 313 305 313 314 312 309 307 306 307 311 308 311 307 308 306 304 306 303 303 306 306 305 314 310 303 299 292 296 299 298 301 302 301 295 295 295 297
312 312 311 310 310 309 314 313 308 311 302 305 307 307 305 302 302 307 310 306 305 305 302 303 302 304 305 306 308 306 306 297 299 299 300 300 299 299 299 297 298 295 297 298
311 312 311 310 310 308 316 308 308 310 306 309 307 304 303 301 304 306 305 303 305 305 303 304 302 304 305 304 305 304 309 298 300 297 300 300 297 299 300 300 299 298 298 298
311 312 311 310 310 310 313 315 315 310 304 307 305 305 304 304 306 307 308 307 305 304 305 309 310 311 310 309 307 307 306 302 299 294 300 299 295 298 299 300 302 300 295 300
310 311 311 310 310 310 311 314 314 308 302 305 305 305 305 303 304 302 305 305 305 309 314 313 312 310 309 309 308 310 306 306 302 297 298 288 300 305 303 301 303 303 303 304
309 311 311 311 310 310 310 314 313 309 301 305 306 305 304 306 307 305 306 307 312 314 309 303 301 301 303 303 305 306 309 305 297 293 293 296 298 302 301 299 299 305 304 305
310 311 311 311 310 310 311 312 320 313 304 305 307 303 305 303 304 305 307 312 316 311 304 300 295 293 297 297 300 306 304 308 298 293 289 288 299 305 307 305 296 304 308 307
308 309 310 310 310 311 310 310 321 313 305 309 308 304 304 309 307 304 308 309 308 312 303 298 296 295 301 294 295 298 299 300 294 295 294 296 300 306 308 293 294 300 302 305
306 307 308 309 310 311 310 309 317 314 309 311 311 312 310 310 310 305 310 306 306 305 300 299 299 298 300 299 301 300 298 296 296 297 292 288 300 302 295 295 301 300 301 303
307 307 308 309 310 311 310 309 321 320 310 310 315 317 317 315 315 311 312 309 308 307 303 303 304 299 301 301 295 304 296 297 294 294 292 297 299 298 298 298 298 300 299 301
306 307 308 308 309 309 309 308 313 316 310 311 312 313 318 320 319 320 309 312 314 314 317 307 303 300 305 299 297 299 297 301 298 296 300 300 301 301 301 300 299 300 301 302
306 307 307 309 309 309 308 307 316 315 313 306 309 319 315 319 320 318 318 317 320 319 315 308 307 303 306 299 298 296 297 299 295 296 298 298 300 301 302 302 302 302 303 302
306 307 308 308 308 307 307 310 314 320 311 307 309 317 317 319 318 317 318 318 316 312 308 308 303 304 303 302 300 294 298 295 292 291 298 297 297 301 302 301 301 302 301 301
306 307 307 307 308 308 314 313 318 320 318 308 305 314 315 316 317 316 314 312 311 309 308 304 305 305 303 295 293 298 301 301 301 297 300 300 301 301 301 300 301 301 301 301
306 306 307 307 308 312 314 311 314 314 319 310 307 306 313 314 316 315 313 314 308 307 306 302 303 302 302 298 293 299 300 301 300 300 299 297 299 297 299 300 301 302 302 302
305 306 307 310 309 308 312 315 312 313 315 314 305 305 305 317 309 308 313 309 309 306 304 303 299 303 302 296 298 299 300 299 299 300 300 299 299 298 298 299 299 298 297 299
306 307 308 314 311 317 316 310 312 318 314 309 307 302 301 313 309 312 312 309 302 307 302 300 299 299 295 297 299 298 298 298 296 296 296 294 292 292 294 294 294 294 296 298
307 310 312 311 315 311 313 314 313 313 313 313 306 311 303 309 307 307 307 307 301 298 300 303 299 296 302 302 300 300 300 298 295 292 290 291 289 290 291 292 294 295 296 299
310 308 309 311 315 315 314 311 309 311 304 307 310 309 305 312 303 303 307 301 301 295 298 294 295 295 297 301 299 301 299 298 297 296 294 292 291 290 291 294 295 298 300 300
303 301 304 310 315 314 310 306 307 306 302 310 305 308 309 309 311 305 305 299 300 293 301 294 292 295 299 299 299 299 299 298 297 296 293 292 290 291 292 293 294 292 294 298
309 303 307 312 311 298 300 298 302 303 307 309 308 305 309 310 309 304 301 295 296 301 295 293 296 298 299 299 298 297 298 297 297 295 294 293 291 291 289 289 290 290 290 292
308 307 294 305 302 304 304 304 305 308 309 308 308 305 304 306 303 301 295 298 297 291 289 291 295 298 297 298 297 297 295 295 295 294 293 292 291 291 291 291 291 291 288 289
307 308 295 303 309 309 309 311 311 311 311 309 306 306 304 301 298 299 295 291 289 291 292 295 298 299 298 296 296 296 294 295 294 294 293 293 293 292 291 292 292 292 292 291
308 308 306 310 308 308 309 310 310 313 312 312 309 301 297 296 296 294 292 290 288 294 298 300 300 299 297 295 295 296 295 295 295 294 294 294 293 292 292 292 292 292 292 291
308 308 312 311 312 308 310 311 310 314 310 303 302 295 294 299 295 293 297 294 297 300 300 300 300 298 296 296 295 295 295 295 294 293 293 293 294 293 292 290 292 292 293 293
Wind_Speed
30 32 33 34 32 37 12 7 6 7 6 7 9 13 20 20 16 1 5 7 11 13 14 10 11 7 15 8 5 5 4 3 11 15 15 10 6 10 14 9 10 11 12 9
29 30 33 33 31 22 11 9 12 7 6 9 11 16 19 18 19 16 7 5 10 9 14 10 8 9 5 8 1 2 3 5 9 14 12 12 4 9 13 12 8 13 12 11
28 28 31 32 35 25 10 7 9 2 3 8 13 12 12 16 9 11 27 8 9 12 10 8 8 9 3 6 3 8 3 6 9 12 16 4 12 15 13 9 9 13 15 18
24 27 28 30 34 38 7 6 8 11 7 13 13 11 13 15 13 15 27 9 10 11 8 13 13 11 12 11 13 7 4 10 14 16 18 20 19 19 15 15 15 16 17 19
24 24 25 27 31 41 4 7 7 11 14 15 10 10 12 13 13 10 4 4 10 10 10 13 13 12 7 13 14 12 10 10 12 17 17 18 21 20 21 19 19 21 22 19
23 22 22 23 25 25 6 9 12 7 10 15 12 3 9 12 14 12 9 12 13 10 11 9 6 15 7 9 11 13 11 11 13 17 19 19 17 16 20 21 16 16 20 19
23 21 20 20 20 15 8 11 9 9 10 14 13 10 8 9 10 9 12 13 11 11 12 12 12 11 10 8 11 9 11 12 11 14 16 20 15 20 11 14 23 15 13 15
23 20 18 18 18 17 10 10 9 7 9 12 9 13 11 9 9 11 11 7 10 11 9 9 10 11 13 17 19 11 7 5 7 8 15 19 16 8 15 17 20 19 14 19
21 20 18 17 18 17 10 11 8 7 7 5 12 13 12 6 12 9 10 6 4 5 6 9 13 12 17 6 6 4 11 8 5 6 18 19 7 18 14 5 13 27 31 17
23 21 20 18 17 17 11 8 10 7 8 8 7 9 9 7 7 7 10 13 4 2 7 9 10 12 13 7 14 12 8 6 14 16 15 10 15 17 13 6 7 18 21 25
23 22 21 18 17 16 9 10 11 8 7 12 7 6 8 10 10 9 14 8 3 6 7 9 8 9 9 7 6 10 5 6 5 8 6 5 19 10 6 6 11 13 16 20
22 23 21 19 16 14 10 8 5 4 6 8 13 9 4 5 8 6 7 7 5 6 7 4 8 8 2 9 5 11 5 5 4 4 1 4 5 5 4 3 10 11 12 15
24 23 21 19 17 14 8 9 9 9 7 9 11 9 6 6 6 6 4 4 8 4 6 6 7 11 9 8 6 1 2 6 1 7 6 7 4 4 6 5 7 12 12 11
24 23 22 20 18 14 10 7 6 6 6 6 3 2 4 2 4 4 3 5 6 5 5 7 6 4 8 5 6 6 3 7 9 12 6 14 2 13 16 10 12 12 12 12
25 25 23 22 20 16 10 9 9 10 5 4 3 6 4 6 4 7 8 5 6 4 3 3 4 3 2 2 2 4 5 5 6 8 16 12 15 16 20 19 20 13 7 13
26 28 27 23 19 13 8 6 8 9 2 5 3 3 6 6 4 6 7 7 6 5 4 4 5 3 4 4 2 3 6 8 7 11 17 18 20 17 17 17 19 19 19 15
27 28 25 21 13 7 5 5 4 7 3 4 0 1 8 4 6 4 5 4 4 5 2 2 2 5 2 2 1 7 13 16 17 17 18 19 18 20 21 20 20 18 16 17
29 25 20 11 3 7 4 4 0 5 5 4 4 3 4 13 1 3 4 2 3 3 2 3 6 5 4 2 8 12 17 16 15 19 19 20 21 21 20 20 20 21 17 17
29 20 11 3 5 2 4 1 3 4 5 4 3 4 1 7 1 3 2 2 2 1 1 4 3 4 3 5 11 14 13 15 17 18 17 17 17 19 17 18 16 17 17 16
30 7 6 3 5 3 4 4 5 5 5 5 3 5 7 8 5 3 2 3 1 3 5 2 4 5 10 11 11 9 14 13 14 16 16 16 15 15 16 17 15 14 16 16
6 5 5 7 8 4 5 4 4 4 2 5 3 4 4 1 6 3 4 1 2 2 3 4 2 4 3 9 9 13 11 12 13 12 13 15 15 16 19 15 14 14 12 10
8 7 7 6 5 4 5 2 4 4 3 4 3 3 6 4 1 1 2 4 5 4 1 3 1 4 7 9 10 12 11 13 14 14 14 15 15 17 15 16 17 17 14 11
5 4 6 4 4 2 2 2 2 2 3 3 4 3 6 4 2 1 3 2 5 2 4 2 6 4 8 8 10 10 11 13 13 15 14 15 14 14 16 16 16 15 15 15
6 4 4 4 2 3 3 4 5 6 5 5 4 4 3 2 1 2 4 5 2 4 3 5 6 7 7 10 8 8 11 12 13 13 12 14 15 14 14 13 13 11 12 13
5 4 4 3 3 3 5 6 2 3 4 4 4 3 4 4 2 2 4 2 1 3 3 5 4 6 9 8 6 9 9 9 10 9 10 10 10 11 13 13 13 14 14 15
5 5 6 3 5 1 4 4 3 5 5 5 3 1 2 1 2 2 3 3 1 3 8 9 6 8 8 6 9 9 7 8 8 9 9 10 11 11 11 13 13 14 14 16
5 5 8 5 1 0 3 4 4 4 4 2 2 1 6 2 3 3 4 2 4 6 8 8 8 8 8 8 7 6 7 8 10 10 9 9 9 10 11 12 10 10 10 11
Wind_Direction
350 348 345 340 349 340 346 301 288 125 179 219 235 244 248 264 287 267 254 273 294 301 303 283 263 273 290 128 135 202 309 290 262 255 243 238 284 316 309 291 268 249 272 287
349 349 347 342 343 3 315 298 295 139 218 242 237 249 267 294 354 296 252 226 268 267 269 278 274 284 64 102 181 234 147 227 257 256 257 202 235 287 270 272 292 272 282 283
350 348 348 344 336 347 315 280 313 128 260 256 290 314 316 309 5 343 319 282 246 264 255 267 261 263 245 130 194 65 30 283 277 279 295 311 238 231 247 232 258 270 264 274
347 349 349 345 339 332 308 295 345 14 309 333 331 304 297 295 296 253 226 254 249 258 240 249 253 223 257 174 140 174 194 256 269 272 279 289 288 283 273 257 259 244 261 271
348 347 350 348 345 332 315 3 336 336 299 295 304 286 274 279 282 301 294 284 290 296 259 263 257 250 222 287 177 197 197 234 265 280 285 283 279 278 278 264 259 271 281 262
345 345 348 351 353 343 334 347 335 287 294 281 264 9 347 345 338 325 304 287 290 282 292 346 287 305 282 209 232 200 196 244 242 254 268 277 272 275 274 272 272 259 256 264
341 343 344 348 349 357 321 305 314 300 309 306 336 355 338 303 300 308 305 304 315 339 356 320 299 278 298 281 234 231 254 245 254 262 265 267 285 297 308 309 297 284 290 279
338 337 339 343 340 342 321 300 306 307 309 303 325 359 316 322 286 232 241 266 34 352 317 296 273 258 259 254 257 238 309 287 304 311 282 272 268 307 4 9 313 320 315 295
333 336 339 341 336 335 318 300 312 280 294 352 348 323 290 337 352 314 252 106 63 312 274 250 244 250 257 206 260 232 214 260 224 203 248 267 351 345 347 288 253 360 355 343
337 336 336 339 334 331 321 283 297 281 284 257 355 8 340 327 329 281 32 354 335 338 279 269 271 273 266 257 246 212 217 224 211 232 267 300 352 348 311 235 340 346 358 356
337 336 333 335 332 330 329 294 280 273 297 301 1 3 10 355 5 338 358 304 131 270 259 272 288 297 327 305 4 313 51 289 334 351 312 249 2 7 24 345 337 349 2 349
329 331 330 329 328 326 334 275 328 218 255 311 321 308 356 12 352 335 314 307 298 352 324 18 310 338 299 287 306 40 61 43 341 13 327 171 70 144 206 332 327 331 338 345
327 327 326 325 323 321 306 295 301 282 253 259 230 210 105 16 42 11 314 25 350 24 346 316 299 309 354 6 46 52 110 24 53 313 183 338 329 177 238 259 296 310 303 296
325 322 320 316 316 310 288 265 270 251 273 280 138 216 133 303 33 58 11 358 338 293 315 329 14 29 3 44 41 24 353 319 325 280 38 338 80 313 315 311 303 278 285 293
321 317 315 314 314 306 276 245 249 257 296 310 293 235 146 98 48 29 14 333 326 292 84 40 43 50 343 109 97 48 346 351 337 318 320 309 297 300 314 312 310 299 290 291
319 318 317 314 310 296 236 208 189 249 202 275 356 3 348 183 158 67 74 360 357 314 121 87 105 75 305 55 55 270 317 29 325 320 327 325 324 318 316 312 305 305 312 293
320 317 314 309 296 240 300 8 2 348 270 250 73 230 234 264 119 193 76 14 48 353 38 86 99 122 70 85 334 344 7 4 342 323 328 315 322 317 309 301 304 305 288 289
320 318 317 327 154 279 230 171 212 331 268 267 254 160 46 258 152 112 180 57 278 47 117 178 17 131 126 146 20 1 359 337 337 346 332 320 320 312 312 312 309 304 294 284
317 317 317 250 228 252 61 248 254 267 289 303 270 11 336 323 1 85 90 344 22 276 8 78 309 40 63 49 23 2 354 9 351 333 326 319 318 309 306 296 294 290 286 286
305 270 207 262 43 287 220 184 193 200 187 234 227 295 26 298 323 68 70 241 210 97 66 302 51 86 48 30 24 17 24 3 350 335 334 334 323 313 301 295 288 276 279 280
344 330 4 334 325 254 219 225 219 122 118 310 249 11 298 298 5 54 249 14 3 105 87 310 238 94 45 20 18 46 17 5 359 339 351 338 326 329 315 302 282 283 276 281
316 305 287 270 242 221 248 287 123 218 109 271 339 45 343 82 16 216 266 203 197 115 157 241 233 65 25 4 38 36 15 2 2 12 3 353 357 348 354 15 19 20 357 15
211 218 240 212 231 358 216 347 68 40 308 21 313 49 267 114 269 331 353 238 70 160 217 100 58 35 24 27 34 16 13 2 21 16 15 14 11 7 16 17 16 16 21 31
249 238 298 250 276 262 85 38 65 45 351 0 345 323 16 12 47 354 298 59 286 326 1 42 79 20 6 46 34 14 11 2 30 21 20 23 22 22 25 24 22 29 38 42
271 269 253 265 183 166 55 70 59 23 359 357 332 87 278 83 206 62 36 252 341 47 39 101 57 35 44 29 22 30 23 8 29 22 32 25 31 36 35 30 35 37 38 46
256 247 267 273 89 45 25 65 27 341 358 346 267 153 39 324 328 237 54 29 326 22 42 72 59 57 50 26 56 38 27 24 32 38 38 33 37 42 47 42 38 40 45 46
267 253 225 257 129 21 249 54 45 13 311 323 336 323 48 297 313 45 63 305 29 45 75 78 71 65 60 58 60 61 50 48 42 40 46 48 47 49 48 44 42 47 50 59